EZY152 EGPH-EGCC

Flight info

Callsign EZY152
Flight time N/A
Altitude 23000
Route GOSAM P600 FENIK L612 LAKEY
Aircraft A20N/M-SDE2E3FGHIRWXY/LB1

Departure

Time 2026-04-26 18:17
Airport Edinburgh Airport (EGPH)

Arrival

Time N/A
Airport Manchester Airport (EGCC)
Time Latitude Longitude Altitude Speed Heading
2026-04-26 17:42 55.95018 -3.36080 107 ft 0 kts 249°
2026-04-26 18:03 55.95023 -3.36061 107 ft 2 kts 248°
2026-04-26 18:04 55.95028 -3.36037 105 ft 2 kts 249°
2026-04-26 18:04 55.95029 -3.36031 106 ft 1 kts 249°
2026-04-26 18:04 55.95032 -3.36018 106 ft 2 kts 249°
2026-04-26 18:05 55.95043 -3.35963 105 ft 2 kts 250°
2026-04-26 18:05 55.95049 -3.35935 104 ft 2 kts 251°
2026-04-26 18:05 55.95054 -3.35907 103 ft 2 kts 256°
2026-04-26 18:05 55.95056 -3.35878 103 ft 2 kts 283°
2026-04-26 18:06 55.95054 -3.35865 103 ft 0 kts 303°
2026-04-26 18:09 55.95054 -3.35866 106 ft 0 kts 303°
2026-04-26 18:10 55.95065 -3.35896 105 ft 11 kts 295°
2026-04-26 18:10 55.95101 -3.36037 104 ft 15 kts 288°
2026-04-26 18:10 55.95133 -3.36216 103 ft 16 kts 286°
2026-04-26 18:11 55.95099 -3.36384 106 ft 11 kts 237°
2026-04-26 18:11 55.95057 -3.36505 107 ft 12 kts 239°
2026-04-26 18:11 55.95008 -3.36652 105 ft 15 kts 238°
2026-04-26 18:11 55.94953 -3.36815 106 ft 17 kts 239°
2026-04-26 18:12 55.94884 -3.37017 104 ft 21 kts 239°
2026-04-26 18:12 55.94817 -3.37214 104 ft 19 kts 239°
2026-04-26 18:12 55.94757 -3.37389 108 ft 16 kts 238°
2026-04-26 18:12 55.94706 -3.37539 110 ft 13 kts 239°
2026-04-26 18:13 55.94658 -3.37681 112 ft 13 kts 239°
2026-04-26 18:13 55.94609 -3.37826 112 ft 14 kts 239°
2026-04-26 18:13 55.94556 -3.37983 111 ft 15 kts 239°
2026-04-26 18:13 55.94520 -3.38090 111 ft 15 kts 239°
2026-04-26 18:14 55.94458 -3.38273 110 ft 13 kts 239°
2026-04-26 18:14 55.94408 -3.38420 112 ft 15 kts 238°
2026-04-26 18:14 55.94353 -3.38581 113 ft 15 kts 239°
2026-04-26 18:14 55.94297 -3.38745 116 ft 15 kts 239°
2026-04-26 18:15 55.94285 -3.38784 118 ft 7 kts 241°
2026-04-26 18:15 55.94304 -3.38882 117 ft 10 kts 322°
2026-04-26 18:15 55.94324 -3.38906 118 ft 3 kts 327°
2026-04-26 18:15 55.94368 -3.38953 115 ft 13 kts 331°
2026-04-26 18:16 55.94439 -3.38898 117 ft 11 kts 60°
2026-04-26 18:16 55.94896 -3.37550 110 ft 124 kts 59°
2026-04-26 18:16 55.95409 -3.36062 329 ft 147 kts 58°
2026-04-26 18:17 55.95986 -3.34530 820 ft 150 kts 51°
2026-04-26 18:17 55.96728 -3.33183 1343 ft 155 kts 40°
2026-04-26 18:17 55.97535 -3.31873 1887 ft 160 kts 40°
2026-04-26 18:17 55.98418 -3.30437 2163 ft 182 kts 40°
2026-04-26 18:18 55.99393 -3.28856 2602 ft 201 kts 39°
2026-04-26 18:18 56.00681 -3.27697 3084 ft 217 kts
2026-04-26 18:18 56.02209 -3.28020 3610 ft 231 kts 332°
2026-04-26 18:18 56.03449 -3.29840 4308 ft 235 kts 300°
2026-04-26 18:19 56.03956 -3.32565 5202 ft 233 kts 270°
2026-04-26 18:19 56.03657 -3.35404 6046 ft 235 kts 249°
2026-04-26 18:19 56.03030 -3.38144 6482 ft 241 kts 246°
2026-04-26 18:19 56.02392 -3.40926 6168 ft 242 kts 249°
2026-04-26 18:20 56.01820 -3.43843 6008 ft 258 kts 252°
2026-04-26 18:20 56.01306 -3.46920 5998 ft 257 kts 254°
2026-04-26 18:20 56.00849 -3.50004 5994 ft 258 kts 255°
2026-04-26 18:20 56.00557 -3.52063 5994 ft 258 kts 255°
2026-04-26 18:21 55.99983 -3.56172 5993 ft 257 kts 255°
2026-04-26 18:21 55.99548 -3.59267 6000 ft 257 kts 255°
2026-04-26 18:21 55.99110 -3.62361 5989 ft 257 kts 255°
2026-04-26 18:21 55.98671 -3.65446 5996 ft 257 kts 255°
2026-04-26 18:22 55.98228 -3.68542 5989 ft 257 kts 255°
2026-04-26 18:22 55.97786 -3.71631 6005 ft 258 kts 255°
2026-04-26 18:22 55.97339 -3.74736 5988 ft 257 kts 255°
2026-04-26 18:22 55.96902 -3.77776 5994 ft 257 kts 255°
2026-04-26 18:23 55.96456 -3.80862 5989 ft 257 kts 255°
2026-04-26 18:23 55.96011 -3.83944 5984 ft 256 kts 255°
2026-04-26 18:23 55.95561 -3.87048 5991 ft 259 kts 255°
2026-04-26 18:23 55.95111 -3.90143 5989 ft 257 kts 255°
2026-04-26 18:24 55.94663 -3.93225 5999 ft 259 kts 255°
2026-04-26 18:24 55.94210 -3.96331 5990 ft 258 kts 255°
2026-04-26 18:24 55.93657 -3.99350 5988 ft 257 kts 246°
2026-04-26 18:24 55.93614 -3.99522 5987 ft 257 kts 245°